• In Hungary
  • List of Countries
  • For 7 days
  • Water Temperature
  • Satellite Maps
  • Weather Map
  • News
  • Weather Widgets
  • user-avatar
    Login

    Hourly Weather Halzanovo

    Today, 12 December, Tuesday

    Time Temperature Precipitation Wind Pressure Humidity
    00:00 -31°C° 0 mm 1 mps 620 mmHg 79%
    01:00 -31°C° 0 mm 1 mps 620 mmHg 79%
    02:00 -31°C° 0 mm 1 mps 620 mmHg 78%
    03:00 -31°C° 0 mm 1 mps 620 mmHg 78%
    04:00 -31°C° 0 mm 1 mps 620 mmHg 77%
    05:00 -31°C° 0 mm 1 mps 620 mmHg 77%
    06:00 -31°C° 0 mm 1 mps 620 mmHg 76%
    07:00 -31°C° 0 mm 1 mps 620 mmHg 71%
    08:00 -30°C° 0 mm 1 mps 620 mmHg 70%
    09:00 -28°C° 0 mm 1 mps 621 mmHg 69%
    10:00 -25°C° 0 mm 1 mps 621 mmHg 67%
    11:00 -24°C° 0 mm 1 mps 621 mmHg 67%
    12:00 -23°C° 0 mm 1 mps 622 mmHg 66%
    13:00 -22°C° 0 mm 1 mps 623 mmHg 66%
    14:00 -23°C° 0 mm 1 mps 622 mmHg 70%
    15:00 -25°C° 0 mm 1 mps 621 mmHg 74%
    16:00 -27°C° 0 mm 1 mps 620 mmHg 78%
    17:00 -28°C° 0 mm 1 mps 620 mmHg 77%
    18:00 -28°C° 0 mm 1 mps 620 mmHg 76%
    19:00 -29°C° 0 mm 1 mps 619 mmHg 74%
    20:00 -29°C° 0 mm 1 mps 619 mmHg 72%
    21:00 -31°C° 0 mm 2 mps 619 mmHg 71%
    22:00 -31°C° 0 mm 2 mps 619 mmHg 70%
    23:00 -30°C° 0 mm 2 mps 619 mmHg 69%

    Tomorrow, 13 December, Wednesday

    Time Temperature Precipitation Wind Pressure Humidity
    00:00 -30°C° 0 mm 2 mps 619 mmHg 69%
    01:00 -30°C° 0 mm 2 mps 619 mmHg 68%
    02:00 -30°C° 0 mm 2 mps 619 mmHg 68%
    03:00 -30°C° 0 mm 2 mps 619 mmHg 68%
    04:00 -30°C° 0 mm 2 mps 619 mmHg 68%
    05:00 -27°C° 0 mm 1 mps 619 mmHg 68%
    06:00 -27°C° 0 mm 1 mps 619 mmHg 68%
    07:00 -27°C° 0 mm 1 mps 619 mmHg 68%
    08:00 -25°C° 0 mm 1 mps 620 mmHg 68%
    09:00 -24°C° 0 mm 1 mps 620 mmHg 68%
    10:00 -23°C° 0 mm 1 mps 621 mmHg 68%
    11:00 -22°C° 0 mm 1 mps 621 mmHg 69%
    12:00 -21°C° 0 mm 1 mps 622 mmHg 70%
    13:00 -20°C° 0 mm 1 mps 622 mmHg 71%
    14:00 -21°C° 0 mm 1 mps 622 mmHg 76%
    15:00 -22°C° 0 mm 1 mps 621 mmHg 81%
    16:00 -23°C° 0 mm 1 mps 621 mmHg 87%
    17:00 -24°C° 0 mm 1 mps 621 mmHg 88%
    18:00 -24°C° 0 mm 1 mps 621 mmHg 89%
    19:00 -24°C° 0 mm 1 mps 621 mmHg 90%
    20:00 -24°C° 0 mm 1 mps 621 mmHg 90%
    21:00 -24°C° 0 mm 1 mps 621 mmHg 91%
    22:00 -24°C° 0 mm 1 mps 621 mmHg 92%
    23:00 -24°C° 0 mm 1 mps 621 mmHg 93%

    Day after tomorrow, 14 December, Thursday

    Time Temperature Precipitation Wind Pressure Humidity
    00:00 -23°C° 0 mm 1 mps 621 mmHg 94%
    01:00 -23°C° 0 mm 1 mps 621 mmHg 95%
    02:00 -23°C° 0 mm 1 mps 621 mmHg 95%
    03:00 -25°C° 0 mm 2 mps 621 mmHg 95%
    04:00 -25°C° 0 mm 2 mps 621 mmHg 96%
    05:00 -25°C° 0.1 mm 2 mps 621 mmHg 96%
    06:00 -24°C° 0.1 mm 2 mps 622 mmHg 96%
    07:00 -24°C° 0.1 mm 2 mps 622 mmHg 95%
    08:00 -23°C° 0.1 mm 2 mps 622 mmHg 93%
    09:00 -24°C° 0.1 mm 3 mps 622 mmHg 90%
    10:00 -23°C° 0.1 mm 3 mps 623 mmHg 88%
    11:00 -24°C° 0.1 mm 4 mps 623 mmHg 87%
    12:00 -24°C° 0.1 mm 4 mps 623 mmHg 86%
    13:00 -24°C° 0.1 mm 4 mps 622 mmHg 84%
    14:00 -24°C° 0.1 mm 4 mps 622 mmHg 87%
    15:00 -24°C° 0.1 mm 3 mps 622 mmHg 89%
    16:00 -25°C° 0.1 mm 3 mps 622 mmHg 92%
    17:00 -25°C° 0 mm 3 mps 622 mmHg 92%
    18:00 -25°C° 0 mm 3 mps 622 mmHg 92%
    19:00 -25°C° 0 mm 3 mps 622 mmHg 92%
    20:00 -26°C° 0 mm 3 mps 622 mmHg 93%
    21:00 -25°C° 0 mm 2 mps 622 mmHg 93%
    22:00 -25°C° 0 mm 2 mps 621 mmHg 94%
    23:00 -26°C° 0 mm 2 mps 621 mmHg 95%

    15 December, Friday

    Time Temperature Precipitation Wind Pressure Humidity
    00:00 -26°C° 0 mm 2 mps 621 mmHg 95%
    01:00 -26°C° 0 mm 2 mps 621 mmHg 96%
    02:00 -27°C° 0 mm 2 mps 620 mmHg 96%
    03:00 -27°C° 0 mm 2 mps 620 mmHg 96%
    04:00 -27°C° 0 mm 2 mps 620 mmHg 96%
    05:00 -27°C° 0 mm 2 mps 620 mmHg 96%
    06:00 -28°C° 0 mm 2 mps 621 mmHg 96%
    07:00 -28°C° 0 mm 2 mps 621 mmHg 96%
    08:00 -27°C° 0 mm 2 mps 621 mmHg 94%
    09:00 -26°C° 0 mm 2 mps 622 mmHg 91%
    10:00 -26°C° 0 mm 3 mps 623 mmHg 89%
    11:00 -26°C° 0 mm 3 mps 623 mmHg 86%
    12:00 -25°C° 0 mm 3 mps 623 mmHg 84%
    13:00 -26°C° 0 mm 4 mps 623 mmHg 82%
    14:00 -25°C° 0 mm 3 mps 623 mmHg 85%
    15:00 -26°C° 0 mm 3 mps 622 mmHg 89%
    16:00 -26°C° 0 mm 2 mps 622 mmHg 92%
    17:00 -27°C° 0 mm 3 mps 622 mmHg 92%
    18:00 -27°C° 0 mm 3 mps 622 mmHg 92%
    19:00 -27°C° 0 mm 3 mps 622 mmHg 93%
    20:00 -26°C° 0 mm 2 mps 622 mmHg 93%
    21:00 -26°C° 0 mm 2 mps 622 mmHg 93%
    22:00 -26°C° 0 mm 2 mps 622 mmHg 93%
    23:00 -26°C° 0 mm 2 mps 622 mmHg 93%

    16 December, Saturday

    Time Temperature Precipitation Wind Pressure Humidity
    00:00 -26°C° 0 mm 2 mps 622 mmHg 94%
    01:00 -26°C° 0 mm 2 mps 621 mmHg 94%
    02:00 -26°C° 0 mm 2 mps 621 mmHg 94%
    03:00 -26°C° 0 mm 2 mps 621 mmHg 95%
    04:00 -25°C° 0 mm 2 mps 620 mmHg 95%
    05:00 -25°C° 0.1 mm 2 mps 620 mmHg 95%
    06:00 -24°C° 0.1 mm 2 mps 620 mmHg 95%
    07:00 -24°C° 0.1 mm 2 mps 620 mmHg 95%
    08:00 -21°C° 0.1 mm 2 mps 620 mmHg 93%
    09:00 -22°C° 0.1 mm 3 mps 621 mmHg 91%
    10:00 -21°C° 0.1 mm 3 mps 621 mmHg 89%
    11:00 -20°C° 0.1 mm 4 mps 620 mmHg 88%
    12:00 -20°C° 0.1 mm 4 mps 620 mmHg 86%
    13:00 -19°C° 0.1 mm 4 mps 620 mmHg 85%
    14:00 -20°C° 0.1 mm 4 mps 619 mmHg 87%
    15:00 -20°C° 0.1 mm 4 mps 619 mmHg 88%
    16:00 -22°C° 0.1 mm 4 mps 619 mmHg 90%
    17:00 -21°C° 0.1 mm 3 mps 619 mmHg 90%
    18:00 -21°C° 0.1 mm 3 mps 619 mmHg 91%
    19:00 -22°C° 0.1 mm 3 mps 619 mmHg 91%
    20:00 -22°C° 0.1 mm 3 mps 618 mmHg 91%
    21:00 -22°C° 0.1 mm 3 mps 618 mmHg 92%
    22:00 -22°C° 0.1 mm 3 mps 618 mmHg 92%
    23:00 -21°C° 0 mm 2 mps 618 mmHg 93%

    17 December, Sunday

    Time Temperature Precipitation Wind Pressure Humidity
    00:00 -21°C° 0 mm 2 mps 618 mmHg 93%
    01:00 -23°C° 0 mm 2 mps 618 mmHg 93%
    02:00 -23°C° 0 mm 2 mps 618 mmHg 94%
    03:00 -24°C° 0 mm 2 mps 618 mmHg 94%
    04:00 -24°C° 0 mm 2 mps 618 mmHg 95%
    05:00 -24°C° 0 mm 2 mps 618 mmHg 95%
    06:00 -25°C° 0 mm 2 mps 618 mmHg 95%
    07:00 -25°C° 0 mm 2 mps 618 mmHg 95%
    08:00 -24°C° 0 mm 2 mps 619 mmHg 93%
    09:00 -23°C° 0 mm 2 mps 619 mmHg 90%
    10:00 -21°C° 0 mm 2 mps 620 mmHg 88%
    11:00 -22°C° 0 mm 3 mps 620 mmHg 86%
    12:00 -22°C° 0 mm 3 mps 620 mmHg 85%
    13:00 -21°C° 0 mm 3 mps 620 mmHg 83%
    14:00 -22°C° 0 mm 3 mps 619 mmHg 86%
    15:00 -22°C° 0 mm 3 mps 619 mmHg 89%
    16:00 -23°C° 0 mm 3 mps 619 mmHg 92%
    17:00 -23°C° 0.1 mm 3 mps 619 mmHg 92%
    18:00 -23°C° 0.1 mm 3 mps 619 mmHg 92%
    19:00 -23°C° 0.1 mm 3 mps 619 mmHg 92%
    20:00 -23°C° 0.1 mm 3 mps 619 mmHg 92%
    21:00 -24°C° 0.1 mm 4 mps 618 mmHg 91%
    22:00 -23°C° 0.1 mm 4 mps 618 mmHg 91%
    23:00 -23°C° 0.1 mm 4 mps 618 mmHg 90%
    Show more